Location: Vihti�l�
(61.3833°N, 23.0667°E)
Time: 04:28:32
(UTC+00:00)

Meteor 2-17 Rocket - Pass Details

Date: 29 November 2020
Orbit: 936 x 955 km, 82.5° (Epoch: 19 January)

Event Time Altitude Azimuth Distance (km) Brightness Sun altitude
Rises 04:09:23 0° 199° (SSW) 3,588 7.4 -19.6°
Reaches altitude 10° 04:11:52 10° 201° (SSW) 2,648 6.7 -19.3°
Maximum altitude 04:17:55 77° 287° (WNW) 972 4.3 -18.6°
Drops below altitude 10° 04:24:03 10° 14° (NNE) 2,672 6.8 -17.9°
Sets 04:26:33 0° 16° (NNE) 3,623 7.5 -17.6°
